Tracking 25620 objects as of 18-May-2022
HD Live streaming from Space Station
objects crossing your sky now

FLOCK 3P 12

Track FLOCK 3P 12 now!
10-day predictions
FLOCK 3P 12 is classified as:


NORAD ID: 41972
Int'l Code: 2017-008AA
Perigee: 470.0 km
Apogee: 477.2 km
Inclination: 97.3 °
Period: 93.9 minutes
Semi major axis: 6844 km
RCS: Unknown
Launch date: February 15, 2017
Source: United States (US)
Launch site: SRIHARIKOTA (SRI)
aabbcc
Your satellite tracking list
Your tracking list is empty




NASA's NSSDC Master Catalog

Two Line Element Set (TLE):
1 41972U 17008AA  22137.43039007  .00016532  00000-0  51816-3 0  9991
2 41972  97.2790 204.3715 0005284 343.4902  16.6167 15.33131108292258
Source of the keplerian elements: AFSPC